SARA 
1 21578U 91050E   03040.96717676  .00001629  00000-0  44758-3 0  8778
2 21578  98.0929  65.4976 0005292 102.0998 258.0791 14.48226021608372
SOLAR A YOHK
1 21694U 91062A   03041.06292085  .00021791  00000-0  77811-3 0  2215
2 21694  31.3394  52.7641 0077958 232.7633 126.6345 15.24753197622623
UARS 
1 21701U 91063B   03041.44759780  .00000878  00000-0  83881-4 0  8211
2 21701  56.9808  64.9225 0004807 113.5004 246.6550 15.02840232624490
SAMPEX 
1 22012U 92038A   03041.56134664  .00007814  00000-0  33050-3 0    43
2 22012  81.6414  39.7942 0075126  53.9207 306.9032 15.20437192579338
ORBVIEW 1 MI
1 23547U 95017C   03040.94991228  .00001349  00000-0  33690-3 0  2897
2 23547  69.9821 270.5807 0011948 322.9295  37.1014 14.53658648415277
XTE 
1 23757U 95074A   03041.46808373  .00006442  00000-0  28657-3 0  2547
2 23757  22.9825 284.9228 0008611 239.7588 120.2153 15.18099882391511
SAX 
1 23857U 96027A   03040.81179771  .00117832  00000-0  11138-2 0  4653
2 23857   3.9573 297.6957 0003741 260.9391  99.0853 15.64950807373725
FAST 
1 24285U 96049A   03040.76609555  .00009399  00000-0  87454-3 0  9888
2 24285  82.9793 136.4071 2054972 228.2393 112.4156 11.13959486258340
SNOE 
1 25233U 98012A   03040.84639696  .00041407  00000-0  66038-3 0  2448
2 25233  97.6499 342.7309 0011917 185.4338 174.6845 15.53039954274383
TRACE 
1 25280U 98020A   03040.94934481  .00003624  00000-0  33145-3 0   552
2 25280  97.8239 228.4789 0025211  98.4042 262.0054 14.95388554263894
SAFIR 2 
1 25399U 98043F   03040.76980228 -.00000043  00000-0  00000-0 0  7740
2 25399  98.6302 118.5471 0003040 112.7345 247.4159 14.23642621238292
SWAS 
1 25560U 98071A   03040.97197363  .00002073  00000-0  25561-3 0    35
2 25560  69.8964   9.9385 0006196  92.7787 267.4081 14.84450853225782
ASTRID 2 
1 25568U 98072B   03040.94090460  .00000135  00000-0  13294-3 0  4829
2 25568  82.9454 246.7500 0024975  13.6170 346.5654 13.71763820208662
ORSTED 
1 25635U 99008B   03041.49483399  .00001133  00000-0  29415-3 0  8287
2 25635  96.4497  29.6596 0145707 355.3727   4.6114 14.44822187208776
SUNSAT 
1 25636U 99008C   03040.97994738  .00000525  00000-0  14526-3 0  7835
2 25636  96.4521  27.9424 0149718   3.2767 356.9372 14.42944113208574
WIRE 
1 25646U 99011A   03041.23268400  .00012718  00000-0  46539-3 0  8769
2 25646  97.5026 230.9371 0018354 255.2133 104.7077 15.28030457217125
ABRIXAS 
1 25721U 99022A   03040.87409621  .00004392  00000-0  25961-3 0  8716
2 25721  48.4383 143.5829 0023855  55.1691 305.1477 15.13057313208085
TERRIERS 
1 25735U 99026A   03040.84073912  .00003579  00000-0  17535-3 0  8840
2 25735  97.5261 285.4072 0006693 284.7317  75.3190 15.18793017206014
FUSE 
1 25791U 99035A   03040.89555455  .00000587  00000-0  12393-3 0  7824
2 25791  24.9824 142.3012 0010686  34.1385 325.9808 14.41259263191365
CXO 
1 25867U 99040B   03042.08333333  .00000000  00000-0  00000-0 0  4822
2 25867  48.3310 121.1920 6327929 312.9547 354.7044  0.37802429   983
CLEMENTINE 
1 25978U 99064B   03040.90056968  .00002733  00000-0  35037-3 0  6318
2 25978  98.2096   5.2491 0012568  79.8522 280.4107 14.82086764171819
XMM 
1 25989U 99066A   03040.41666667  .00000000  00000-0  00000-0 0  5684
2 25989  38.6219 152.5987 7754358 122.0347 345.7997  0.50121674  1156
TERRA 
1 25994U 99068A   03041.82785857  .00000558  00000-0  13383-3 0  6849
2 25994  98.2007 118.1680 0000879  81.3763 278.7535 14.57122290167547
ACRIMSAT 
1 26033U 99070B   03040.79435041  .00000673  00000-0  15058-3 0  7940
2 26033  98.1909 305.1802 0028127 253.1110 106.7003 14.59652538167058
IMAGE 
1 26113U 00017A   03042.03536074  .00000048  00000-0  10000-3 0  4180
2 26113  90.5977 196.2920 7599067 199.5727  96.8186  1.68629760 17735
DELTA 2 R/B2
1 26115U 00017C   03033.50091516  .00000003  00000-0  10000-3 0  3811
2 26115  90.5438 196.2834 7649949 203.4798  83.2447  1.68189301 17553
CLUSTER II/F
1 26410U 00041A   03040.08333333  .00000000  00000-0  00000-0 0  3917
2 26410  89.0839 163.9361 6424415  17.4688 244.8978  0.42042115   282
CLUSTER II/F
1 26411U 00041B   03040.08333333  .00000000  00000-0  00000-0 0  4010
2 26411  90.1119 164.5231 6564744  14.5359 248.6323  0.42042697   341
CLUSTER II/F
1 26463U 00045A   03040.79166667  .00000000  00000-0  00000-0 0  3944
2 26463  90.2620 164.5952 6009862  14.9312 358.7475  0.42042503   846
CLUSTER II/F
1 26464U 00045B   03040.79166667  .00000000  00000-0  00000-0 0  3798
2 26464  86.9427 162.7288 6273363  14.7378 357.3915  0.42042370   223
MEGSAT-1 
1 26546U 00057B   03040.95196572  .00001787  00000-0  24016-3 0  7500
2 26546  64.5532  49.6521 0043598 238.3864 121.2986 14.81858698128132
HETE-2 
1 26561U 00061A   03040.41485664  .00003688  00000-0  27330-3 0  3236
2 26561   1.9468  61.7613 0025598 321.2788  38.5054 14.92543759127334
MUNIN 
1 26621U 00075C   03040.67975598 -.00000538  00000-0 -47464-3 0  2351
2 26621  95.4210  86.5743 0716603 241.6017 111.1087 13.03483050105504
ODIN 
1 26702U 01007A   03040.99363519  .00003420  00000-0  34395-3 0  7193
2 26702  97.8144  51.1870 0003201 285.7956  74.2911 14.91876509107026
TIMED 
1 26998U 01055B   03040.94912196  .00000963  00000-0  12408-3 0  3858
2 26998  74.0721 253.5489 0002254 252.5670 107.5258 14.82592886 63575
RHESSI 
1 27370U 02004A   03040.58299810  .00004346  00000-0  38388-3 0  3459
2 27370  38.0407   4.9466 0018068 236.5536 123.3521 14.96423240 55175
USERS 
1 27515U 02042A   03040.87694509  .00010478  00000-0  42873-3 0  1420
2 27515  30.4041 223.0341 0009286  61.1624 299.0072 15.22890725 23267
INTEGRAL 
1 27540U 02048A   03041.04166667  .00000000  00000-0  00000-0 0   469
2 27540  54.8735  97.7752 8169783 302.5969 358.3568  0.33413064    18
FEDSAT 
1 27598U 02056B   03040.71809608  .00000142  00000-0  75524-4 0   489
2 27598  98.6675 114.5894 0008671 194.2349 165.8584 14.27715188  8234
WEOS 
1 27599U 02056C   03040.76966573  .00000190  00000-0  93961-4 0   556
2 27599  98.6718 114.7324 0009288 210.1289 149.9358 14.28176980  8244
MICRO LABSAT
1 27600U 02056D   03040.75495401  .00000161  00000-0  81644-4 0   615
2 27600  98.6644 114.7090 0010311 219.0142 141.0294 14.28540701  8248
CORIOLIS 
1 27640U 03001A   03040.94143407  .00000107  00000-0  73588-4 0   570
2 27640  98.7353  49.3441 0013555 229.1754 130.8247 14.18013205  4925
CHIPSAT 
1 27643U 03002B   03041.47485003  .00003237  00000-0  30524-3 0   360
2 27643  94.0093 195.5513 0013525 135.6262 224.6048 14.93918099  4248
STARLETTE 
1 07646U 75010A   03040.73835864 -.00000017  00000-0  98666-4 0  9940
2 07646  49.8286 284.9132 0205850 331.4497  27.5277 13.82255936414869
LAGEOS 1 
1 08820U 76039A   03040.80402267 -.00000012  00000-0  10000-3 0  8952
2 08820 109.8298 137.9861 0044316 328.7331  31.0711  6.38664649368920
EGP 
1 16908U 86061A   03040.42601725 -.00000083  00000-0  10000-3 0  7533
2 16908  50.0145  91.4013 0011062  71.9115 288.2869 12.44446895418758
LAGEOS 2 
1 22195U 92070B   03040.93143401 -.00000009  00000-0  00000-0 0  1621
2 22195  52.6477 256.6115 0138728  58.8742 302.5348  6.47294241243510
STELLA 
1 22824U 93061B   03040.91974558 -.00000049  00000-0 -34695-5 0  4400
2 22824  98.2730  65.5462 0005533 304.6816  55.3846 14.27243240488359
WESTPAC 
1 25398U 98043E   03040.81126843  .00000013  00000-0  25290-4 0  9010
2 25398  98.6283 117.2523 0001752 107.0858 253.0511 14.22615088238232
GRACE 1 
1 27391U 02012A   03040.85832424  .00004493  00000-0  16505-3 0  2791
2 27391  89.0146 311.1060 0022096  90.4126 269.9715 15.27463045 50220
GRACE 2 
1 27392U 02012B   03040.85858718  .00004507  00000-0  16545-3 0  2909
2 27392  89.0150 311.1084 0023129  92.3727 268.0217 15.27463098 50223
ATS 1 
1 02608U 66110A   03039.65309745 -.00000274  00000-0  10000-3 0  3569
2 02608  12.1200 327.4169 0005656 107.5553 252.5507  1.00349038 49225
ATS 3 
1 03029U 67111A   03039.39789995 -.00000097  00000-0  00000+0 0  4175
2 03029  13.0373 334.8447 0016040 354.8453 206.2819  1.00272256129105
DEBUT ORIZUR
1 20479U 90013B   03040.93080118  .00000081  00000-0  25067-3 0  5529
2 20479  99.0426   6.0532 0540197  21.2228 341.0385 12.83599140609464
MAQSAT H 
1 25023U 97066A   03040.70356256 -.00000039  00000-0  74306-6 0  7460
2 25023   7.7052  66.4232 6499812 127.1934 311.4460  3.09234382 59517
MAQSAT B 
1 25024U 97066B   03039.73135850 -.00000108  00000-0 -56283-3 0  6690
2 25024   7.7659  63.1687 6509526 133.1404 303.8650  3.08733960 59535
TEAMSAT 
1 25025U 97066C   03040.90379235  .00000092  00000-0  10769-2 0  6710
2 25025   7.7437  68.9847 6510709 121.8437 317.4738  3.07893378 59397
MEGSAT 
1 25722U 99022B   03040.55000293  .00044671  00000-0  82067-3 0  2048
2 25722  48.4242  36.5359 0010022 136.3963 223.7973 15.48644030209437
JAWSAT 
1 26061U 00004A   03035.87030376  .00000483  00000-0  17893-3 0  7572
2 26061 100.2099  90.3961 0034830 318.8154  41.0402 14.37807214158567
OPAL 
1 26063U 00004C   03040.70323166  .00000149  00000-0  71861-4 0  7175
2 26063 100.2142  93.6745 0037119 312.3243  47.4798 14.35477268159115
FALCONSAT 
1 26064U 00004D   03040.67326676  .00000137  00000-0  68228-4 0  7182
2 26064 100.2162  93.1608 0038227 314.2699  45.5346 14.35075625159072
ASUSAT 
1 26065U 00004E   03036.54799311  .00000175  00000-0  80852-4 0  7262
2 26065 100.2115  88.9103 0037032 325.1198  34.7556 14.35502570158516
PICOSAT 12 T
1 26080U 00004H   03040.09366074  .00000801  00000-0  27667-3 0  5549
2 26080 100.2132  97.6903 0033433 308.0038  51.8186 14.39090459157599
